STARLINK-2346 (47887 NORAD) Tracking and Keplerian Element Data

This shows tracking and keplerian element data for the satellite.

Feedback or suggestion? Click here.




ElementValue
Catalog47887
NameSTARLINK-2346
Epoch Orbit196
Epoch Day173.91668981
Epoch Year2021
RAAN86.4575
Inclination53.0501
Eccentricity0.0001477
Argument of Perigee65.9188
Mean Anonmoly230.8492
Mean Motion15.06394334
Decay Rate1.32E-06
L11 47887U 21021AD 21173.91668981 .00000132 00000-0 27790-4 0 9997
L22 47887 53.0501 86.4575 0001477 65.9188 230.8492 15.06394334 1963

Live tracking and technical data element details for STARLINK-2346 (NORAD 47887). STARLINK-2346 can be tracked NOW for your location showing map with azimuth and elevation plus other details from your city location.

Track the satellite on the map from your city or location and see movement details for azimuth, elevation, latitude, longitude, range, height, and movement on the map or in text.







IsCatalogInMostPopularTable: catalog: 47887, numindb: 44
Update: records affected: 1



GetName: 47887 STARLINK-2346

Hit Count: updated at: Thu, 24 Jun 2021 02:49:13 GMT